Hourly Data Report for October 31, 2014

All times are specified in Local Standard Time (LST). Add 1 hour to adjust for Daylight Saving Time where and when it is observed.

IQALUIT CLIMATE
NUNAVUT

63°44'50.000" N
68°32'40.000" W
33.50 m
2402592
71321
XFB

Download Data

Hourly Data (October 2014)
Hourly Data Report for October 31, 2014
Temp Definition
°C
Dew Point Temp Definition
°C
Rel Hum Definition
%
Wind Dir Definition
10's deg

Wind Spd Definition
km/h
Visibility Definition
km
Stn Press Definition
kPa
Hmdx Definition


Wind Chill Definition


Weather Definition


TIME
00:00 1.9 -1.2 80 6 31   99.54     LegendNANA
01:00 1.7 -0.9 83 5 27   99.53     LegendNANA
02:00 1.8 -0.7 83 6 27   99.52     LegendNANA
03:00 1.7 -0.5 85 6 31   99.53     LegendNANA
04:00 1.8 -0.6 84 6 29   99.54     LegendNANA
05:00 2.0 -0.8 82 7 24   99.56     LegendNANA
06:00 1.9 -0.3 85 7 23   99.59     LegendNANA
07:00 2.3 -0.6 82 9 12   99.64     LegendNANA
08:00 2.0 -0.3 85 11 12   99.71     LegendNANA
09:00 1.3 -0.3 89 16 4   99.78     LegendNANA
10:00 0.9 0.1 94 12 4   99.85     LegendNANA
11:00 0.9 0.2 95 36 5   99.88     LegendNANA
12:00 2.1 0.5 89 3 1   99.91     LegendNANA
13:00 2.5 0.1 84 14 4   99.95     LegendNANA
14:00 2.3 -0.3 83 13 6   100.01     LegendNANA
15:00 2.6 -0.5 80 8 15   100.09     LegendNANA
16:00 2.8 -0.3 80 10 17   100.17     LegendNANA
17:00 2.7 0.0 82 10 19   100.26     LegendNANA
18:00 2.5 0.0 83 10 20   100.33     LegendNANA
19:00 2.2 -0.2 84 10 17   100.43     LegendNANA
20:00 2.3 -0.2 84 10 15   100.49     LegendNANA
21:00 2.6 -0.5 80 10 14   100.55     LegendNANA
22:00 2.1 -0.9 81 7 16   100.61     LegendNANA
23:00 2.5 -1.0 77 10 20   100.67     LegendNANA

Notes on Data Quality.

Legend

  • E = Estimated
  • M = Missing
  • NA = Not Available
  • ‡ = Partner data that is not subject to review by the National Climate Archives
Date modified: